Millinocket, ME

10:44 AM EDT on June 28, 2017 (GMT -0400)
Millinocket Municipal

Weather History for KMLT - November, 2013

Change the Weather History Date:

Friday, November 1, 2013

  Actual Average Record
Temperature  
Mean Temperature 58 °F 40 °F  
Max Temperature 64 °F 48 °F 71 °F (1956)
Min Temperature 51 °F 32 °F 15 °F (1972)
Degree Days  
Heating Degree Days 7 25  
Month to date heating degree days 7 25  
Since 1 July heating degree days 757 959  
Cooling Degree Days 0 0  
Month to date cooling degree days 0 0  
Year to date cooling degree days 380 268  
Growing Degree Days 7 (Base 50)    
Moisture  
Dew Point 55 °F    
Average Humidity 74    
Maximum Humidity 96    
Minimum Humidity 51    
Precipitation  
Precipitation 0.72 in 0.12 in 2.10 in (1962)
Month to date precipitation 0.72 0.12  
Year to date precipitation 32.35 34.84  
Sea Level Pressure  
Sea Level Pressure 29.42 in    
Wind  
Wind Speed 7 mph (SSW)    
Max Wind Speed 21 mph    
Max Gust Speed 32 mph    
Visibility 7 miles    
Events Rain    
T = Trace of Precipitation, MM = Missing Value Source: NWS Daily Summary

Daily Weather History Graph

Daily Weather History Graph

Search for Another Location

Airport or City:

Trip Planner

Search our weather history database for the weather conditions in past years. The results will help you decide how hot, cold, wet, or windy it might be!

Date:

Astronomy

Nov. 01, 2013 Rise Set
Actual Time 7:14 AM EDT 5:21 PM EDT
Civil Twilight 6:43 AM EDT 5:52 PM EDT
Nautical Twilight 6:08 AM EDT 6:27 PM EDT
Astronomical Twilight 5:34 AM EDT 7:01 PM EDT
Moon 4:57 AM EDT (11/1) 4:16 PM EDT (11/1)
Length of Visible Light 11h 08m
Length of Day
10h 06m
Waning Crescent, 4% of the Moon is Illuminated
Nov 1
Waning Crescent
Nov 3
New
Nov 10
First Quarter
Nov 17
Full
Nov 25
Last Quarter

Hourly Weather History & Observations

Time (EDT) Temp. Dew Point Humidity Pressure Visibility Wind Dir Wind Speed Gust Speed Precip Events Conditions
12:13 AM 50.0 °F 48.2 °F 94% 29.71 in 9.0 mi Variable 3.5 mph - 0.01 in Rain Light Rain
12:22 AM 51.8 °F 48.2 °F 88% 29.70 in 8.0 mi Variable 4.6 mph - 0.02 in Rain Light Rain
12:42 AM 51.8 °F 48.2 °F 88% 29.69 in 7.0 mi Variable 4.6 mph - 0.03 in Rain Light Rain
12:53 AM 51.1 °F 48.9 °F 92% 29.71 in 9.0 mi Variable 4.6 mph - 0.03 in Rain Light Rain
1:15 AM 51.8 °F 48.2 °F 88% 29.67 in 9.0 mi Variable 4.6 mph - 0.01 in Rain Light Rain
1:23 AM 51.8 °F 48.2 °F 88% 29.67 in 9.0 mi Variable 5.8 mph - 0.01 in Rain Light Rain
1:53 AM 51.1 °F 48.9 °F 92% 29.68 in 8.0 mi Variable 3.5 mph - 0.02 in Rain Light Rain
2:53 AM 51.1 °F 50.0 °F 96% 29.63 in 7.0 mi Calm Calm - 0.05 in Rain Light Rain
3:18 AM 53.6 °F 51.8 °F 94% 29.58 in 7.0 mi Variable 5.8 mph - 0.01 in Rain Light Rain
3:28 AM 53.6 °F 51.8 °F 94% 29.58 in 8.0 mi SSE 5.8 mph - 0.02 in Rain Light Rain
3:53 AM 55.0 °F 53.1 °F 93% 29.57 in 10.0 mi Variable 6.9 mph - 0.02 in Rain Light Rain
4:02 AM 55.4 °F 53.6 °F 94% 29.54 in 10.0 mi Variable 4.6 mph - 0.00 in Rain Light Rain
4:49 AM 57.2 °F 55.4 °F 94% 29.51 in 9.0 mi Variable 6.9 mph - 0.01 in Rain Light Rain
4:53 AM 57.0 °F 55.0 °F 93% 29.53 in 8.0 mi Variable 4.6 mph - 0.02 in Rain Light Rain
5:08 AM 57.2 °F 55.4 °F 94% 29.50 in 7.0 mi South 9.2 mph - 0.00 in Rain Light Rain
5:15 AM 57.2 °F 55.4 °F 94% 29.50 in 7.0 mi South 8.1 mph 16.1 mph 0.01 in Rain Light Rain
5:38 AM 57.2 °F 55.4 °F 94% 29.49 in 8.0 mi Variable 5.8 mph - 0.02 in Rain Light Rain
5:45 AM 57.2 °F 55.4 °F 94% 29.48 in 8.0 mi Variable 5.8 mph - 0.02 in Rain Light Rain
5:53 AM 57.9 °F 55.9 °F 93% 29.50 in 8.0 mi Variable 4.6 mph - 0.03 in Rain Light Rain
6:02 AM 57.2 °F 55.4 °F 94% 29.47 in 8.0 mi Variable 5.8 mph - 0.00 in Rain Light Rain
6:19 AM 57.2 °F 55.4 °F 94% 29.46 in 10.0 mi Variable 6.9 mph - 0.01 in Rain Light Rain
6:30 AM 57.2 °F 55.4 °F 94% 29.46 in 10.0 mi South 8.1 mph - 0.01 in Rain Light Rain
6:45 AM 57.2 °F 55.4 °F 94% 29.46 in 8.0 mi Variable 5.8 mph - 0.02 in Rain Light Rain
6:53 AM 57.9 °F 55.9 °F 93% 29.47 in 7.0 mi South 6.9 mph 16.1 mph 0.02 in Rain Light Rain
7:07 AM 57.2 °F 55.4 °F 94% 29.44 in 6.0 mi SSE 9.2 mph - 0.01 in Rain Light Rain
7:46 AM 59.0 °F 55.4 °F 88% 29.43 in 5.0 mi Variable 6.9 mph - 0.05 in Rain Rain
7:53 AM 59.0 °F 55.9 °F 90% 29.44 in 4.0 mi South 6.9 mph - 0.06 in Rain Rain
8:00 AM 59.0 °F 55.4 °F 88% 29.42 in 4.0 mi South 9.2 mph - 0.01 in Rain Light Rain
8:40 AM 60.8 °F 57.2 °F 88% 29.40 in 5.0 mi South 10.4 mph 19.6 mph 0.04 in Rain Light Rain
8:53 AM 60.1 °F 57.0 °F 90% 29.42 in 5.0 mi South 8.1 mph 24.2 mph 0.05 in Rain Light Rain
9:01 AM 60.8 °F 57.2 °F 88% 29.41 in 6.0 mi South 9.2 mph 24.2 mph 0.00 in Rain Light Rain
9:11 AM 60.8 °F 57.2 °F 88% 29.40 in 5.0 mi Variable 6.9 mph 17.3 mph 0.01 in Rain Light Rain
9:20 AM 60.8 °F 57.2 °F 88% 29.40 in 6.0 mi Variable 6.9 mph 20.7 mph 0.01 in Rain Light Rain
9:27 AM 60.8 °F 57.2 °F 88% 29.40 in 6.0 mi South 8.1 mph 19.6 mph 0.02 in Rain Light Rain
9:53 AM 60.1 °F 57.0 °F 90% 29.40 in 7.0 mi Variable 6.9 mph 16.1 mph 0.03 in Rain Light Rain
10:53 AM 61.0 °F 57.9 °F 90% 29.38 in 9.0 mi SSW 8.1 mph - 0.03 in Rain Light Rain
11:53 AM 62.1 °F 59.0 °F 90% 29.35 in 10.0 mi Variable 5.8 mph 24.2 mph 0.00 in   Overcast
12:49 PM 64.4 °F 59.0 °F 83% 29.29 in 10.0 mi Variable 6.9 mph 16.1 mph N/A   Overcast
12:53 PM 64.0 °F 59.0 °F 84% 29.30 in 10.0 mi SSW 9.2 mph 16.1 mph N/A   Overcast
1:23 PM 62.6 °F 60.8 °F 94% 29.28 in 1.8 mi SSW 9.2 mph 19.6 mph 0.06 in Rain Heavy Rain
1:35 PM 62.6 °F 60.8 °F 94% 29.27 in 2.5 mi Variable 5.8 mph - 0.09 in Rain Rain
1:42 PM 62.6 °F 60.8 °F 94% 29.31 in 2.5 mi West 10.4 mph 19.6 mph 0.13 in Rain Rain
1:44 PM 62.6 °F 60.8 °F 94% 29.31 in 1.0 mi WSW 10.4 mph 19.6 mph 0.21 in Rain Heavy Rain
1:51 PM 62.6 °F 59.0 °F 88% 29.29 in 0.8 mi SW 9.2 mph 19.6 mph 0.26 in Rain Heavy Rain
1:53 PM 63.0 °F 59.0 °F 87% 29.31 in 0.8 mi SSW 10.4 mph 21.9 mph 0.27 in Rain Heavy Rain
2:00 PM 60.8 °F 57.2 °F 88% 29.29 in 1.2 mi SW 9.2 mph 25.3 mph 0.05 in Rain Heavy Rain
2:10 PM 60.8 °F 57.2 °F 88% 29.27 in 1.5 mi Variable 5.8 mph - 0.10 in Rain Rain
2:15 PM 60.8 °F 57.2 °F 88% 29.26 in 3.0 mi South 8.1 mph 20.7 mph 0.11 in Rain Rain
2:53 PM 62.1 °F 59.0 °F 90% 29.21 in 10.0 mi Variable 3.5 mph - 0.12 in   Mostly Cloudy
3:18 PM 62.6 °F 59.0 °F 88% 29.22 in 10.0 mi Calm Calm - N/A   Mostly Cloudy
3:48 PM 62.6 °F 57.2 °F 82% 29.23 in 10.0 mi SSW 9.2 mph 25.3 mph N/A   Overcast
3:53 PM 63.0 °F 57.9 °F 84% 29.24 in 10.0 mi SW 10.4 mph 19.6 mph N/A   Overcast
4:17 PM 62.6 °F 57.2 °F 82% 29.23 in 10.0 mi Variable 6.9 mph 18.4 mph N/A   Scattered Clouds
4:53 PM 62.1 °F 55.0 °F 78% 29.26 in 10.0 mi Variable 6.9 mph 18.4 mph N/A   Clear
5:53 PM 61.0 °F 54.0 °F 78% 29.27 in 10.0 mi Variable 6.9 mph - N/A   Clear
6:53 PM 60.1 °F 53.1 °F 78% 29.29 in 10.0 mi Variable 3.5 mph - N/A   Clear
7:53 PM 59.0 °F 53.1 °F 81% 29.29 in 10.0 mi Variable 4.6 mph - N/A   Scattered Clouds
8:53 PM 59.0 °F 53.1 °F 81% 29.33 in 10.0 mi Variable 3.5 mph - N/A   Mostly Cloudy
9:53 PM 59.0 °F 48.0 °F 67% 29.37 in 10.0 mi WSW 10.4 mph 18.4 mph N/A   Clear
10:53 PM 57.9 °F 41.0 °F 53% 29.41 in 10.0 mi WSW 8.1 mph - N/A   Mostly Cloudy
11:53 PM 57.9 °F 39.9 °F 51% 29.46 in 10.0 mi West 13.8 mph 26.5 mph N/A   Mostly Cloudy